PANSAT - Orbit

View from above orbital plane
View from above orbital plane
View from above satellite
View from above satellite

Ground track
Ground track

The orbit data is extracted from the following two-line orbital elements,

1 25520U 98064B   13144.83002247  .00003335  00000-0  13683-3 0  2553
2 25520 028.4601 329.3804 0004627 162.9980 326.7325 15.21107475807400
Epoch (UTC): 24 May 2013 19:55:13
Eccentricity: 0.0004627
inclination: 28.4601°
perigee height: 499 km
apogee height: 505 km
right ascension of ascending node: 329.3804°
argument of perigee: 162.9980°
revolutions per day: 15.21107475
mean anomaly at epoch: 326.7325°
orbit number at epoch: 80740

The dashed part of the orbit path shows where the satellite is in the earth's shadow,  

Developed and maintained by Chris Peat, Heavens-Above GmbH. Please read the updated FAQ before sending e-mail. Imprint. DLR